This demonstration page uses our WeatherBlox Daily Observations layout. Learn more.

Hourly Observations for June 20, 2017

Temp ( °F °C ) Dew Point ( °F °C ) Humidity (%) Winds ( mph kmh ) Pressure ( in mb ) Visibility ( mi km ) Precip ( " mm )
12:15 am 00:15 Clear 72 22 72 22 100 100 SW 5 7 29.94 1014 10 16.09344 0 0
12:35 am 00:35 Clear 72 22 72 22 100 100 W 6 9 29.94 1014 10 16.09344 0 0
12:55 am 00:55 Clear 72 22 72 22 100 100 WSW 6 9 29.91 1013 10 16.09344 0 0
1:15 am 01:15 Clear 72 22 72 22 100 100 WSW 3 6 29.91 1013 10 16.09344 0 0
1:35 am 01:35 Clear 72 22 70 21 94 94 NW 14 22 29.94 1014 10 16.09344 0 0
1:55 am 01:55 Clear 72 22 68 20 88 88 NW 7 11 29.94 1014 10 16.09344 0 0
2:15 am 02:15 Partly Cloudy 70 21 66 19 88 88 WNW 8 13 29.94 1014 10 16.09344 0 0
2:35 am 02:35 Mostly Cloudy 70 21 64 18 83 83 WNW 8 13 29.94 1014 10 16.09344 0 0
2:55 am 02:55 Cloudy 70 21 64 18 83 83 WNW 10 17 29.94 1014 10 16.09344 0 0
3:15 am 03:15 Mostly Cloudy 70 21 64 18 83 83 NW 8 13 29.94 1014 10 16.09344 0 0
3:35 am 03:35 Mostly Cloudy 68 20 64 18 88 88 W 7 11 29.94 1014 10 16.09344 0 0
3:55 am 03:55 Cloudy 68 20 64 18 88 88 W 7 11 29.94 1014 10 16.09344 0 0
4:15 am 04:15 Partly Cloudy 68 20 64 18 88 88 Calm 29.94 1014 10 16.09344 0 0
4:35 am 04:35 Clear 64 18 63 17 94 94 W 7 11 29.94 1014 10 16.09344 0 0
4:55 am 04:55 Clear 66 19 64 18 94 94 S 3 6 29.94 1014 10 16.09344 0 0
5:15 am 05:15 Clear 66 19 63 17 88 88 W 5 7 29.97 1015 10 16.09344 0 0
5:35 am 05:35 Clear 66 19 64 18 94 94 W 8 13 29.97 1015 10 16.09344 0 0
5:55 am 05:55 Sunny 66 19 64 18 94 94 Calm 29.97 1015 10 16.09344 0 0
6:15 am 06:15 Sunny 68 20 64 18 88 88 Calm 29.97 1015 10 16.09344 0 0
6:35 am 06:35 Sunny 68 20 64 18 88 88 Calm 29.97 1015 10 16.09344 0 0
6:55 am 06:55 Sunny 70 21 64 18 83 83 S 3 6 30 1016 10 16.09344 0 0
7:15 am 07:15 Sunny 70 21 64 18 83 83 SW 3 6 30 1016 10 16.09344 0 0
7:35 am 07:35 Sunny 72 22 64 18 78 78 WSW 5 7 30 1016 10 16.09344 0 0
7:55 am 07:55 Sunny 73 23 64 18 74 74 W 5 7 30 1016 10 16.09344 0 0
8:15 am 08:15 Sunny 75 24 64 18 69 69 W 5 7 30 1016 10 16.09344 0 0
8:35 am 08:35 Sunny 77 25 64 18 65 65 W 5 7 30 1016 10 16.09344 0 0
8:55 am 08:55 Sunny 77 25 64 18 65 65 W 7 11 30 1016 10 16.09344 0 0
9:15 am 09:15 Sunny 77 25 63 17 61 61 WSW 5 7 30 1016 10 16.09344 0 0
9:35 am 09:35 Sunny 79 26 64 18 61 61 W 6 9 30 1016 10 16.09344 0 0
9:55 am 09:55 Sunny 81 27 64 18 58 58 W 9 15 30 1016 10 16.09344 0 0
10:15 am 10:15 Sunny 81 27 63 17 54 54 WNW 5 7 30.03 1017 10 16.09344 0 0
10:35 am 10:35 Sunny 81 27 63 17 54 54 WNW 13 20 30.03 1017 10 16.09344 0 0
10:55 am 10:55 Sunny 82 28 61 16 48 48 W 9 15 30.03 1017 10 16.09344 0 0
11:15 am 11:15 Sunny 82 28 61 16 48 48 W 8 13 30.03 1017 10 16.09344 0 0
11:35 am 11:35 Sunny 82 28 61 16 48 48 W 8 13 30 1016 10 16.09344 0 0
11:55 am 11:55 Partly Cloudy 82 28 61 16 48 48 WNW 12 19 30 1016 10 16.09344 0 0
12:15 pm 12:15 Partly Cloudy 84 29 59 15 43 43 W 14 22 30 1016 10 16.09344 0 0
12:35 pm 12:35 Partly Cloudy 84 29 61 16 45 45 W 10 17 30 1016 10 16.09344 0 0
12:55 pm 12:55 Partly Cloudy 86 30 59 15 40 40 W 12 19 30 1016 10 16.09344 0 0
1:15 pm 13:15 Partly Cloudy 86 30 61 16 43 43 W 8 13 30 1016 10 16.09344 0 0
1:35 pm 13:35 Partly Cloudy 86 30 59 15 40 40 W 14 22 30 1016 10 16.09344 0 0
1:55 pm 13:55 Partly Cloudy 86 30 59 15 40 40 SW 9 15 30 1016 10 16.09344 0 0
2:15 pm 14:15 Partly Cloudy 86 30 61 16 43 43 WSW 13 20 30 1016 10 16.09344 0 0
2:35 pm 14:35 Partly Cloudy 88 31 59 15 38 38 W 5 7 29.94 1014 10 16.09344 0 0
2:55 pm 14:55 Partly Cloudy 88 31 61 16 40 40 WSW 8 13 29.94 1014 10 16.09344 0 0
3:15 pm 15:15 Partly Cloudy 88 31 61 16 40 40 SW 10 17 29.94 1014 10 16.09344 0 0
3:35 pm 15:35 Partly Cloudy 88 31 59 15 38 38 SSW 9 15 29.94 1014 10 16.09344 0 0
3:55 pm 15:55 Mostly Cloudy 86 30 61 16 43 43 WSW 5 7 29.94 1014 10 16.09344 0 0
4:15 pm 16:15 Partly Cloudy 88 31 63 17 43 43 SW 8 13 29.94 1014 10 16.09344 0 0
4:35 pm 16:35 Sunny 88 31 61 16 40 40 SW 8 13 29.94 1014 10 16.09344 0 0
4:55 pm 16:55 Partly Cloudy 88 31 61 16 40 40 SSW 12 19 29.94 1014 10 16.09344 0 0
5:15 pm 17:15 Partly Cloudy 86 30 61 16 43 43 SSW 7 11 29.94 1014 10 16.09344 0 0
5:35 pm 17:35 Partly Cloudy 86 30 63 17 46 46 SW 8 13 29.94 1014 10 16.09344 0 0
5:55 pm 17:55 Mostly Cloudy 86 30 63 17 46 46 SSW 10 17 29.94 1014 10 16.09344 0 0
6:15 pm 18:15 Mostly Cloudy 82 28 63 17 51 51 SW 7 11 29.97 1015 10 16.09344 0 0
6:35 pm 18:35 Partly Cloudy 86 30 64 18 49 49 SW 8 13 29.94 1014 10 16.09344 0 0
6:55 pm 18:55 Sunny 84 29 63 17 48 48 SW 8 13 29.97 1015 10 16.09344 0 0
7:15 pm 19:15 Mostly Cloudy 82 28 64 18 55 55 SW 7 11 29.97 1015 10 16.09344 0 0
7:35 pm 19:35 Mostly Cloudy 82 28 64 18 55 55 SSW 10 17 30 1016 10 16.09344 0 0
7:55 pm 19:55 Mostly Cloudy 81 27 66 19 62 62 SW 8 13 30 1016 10 16.09344 0 0
8:15 pm 20:15 Partly Cloudy 81 27 66 19 62 62 SSW 6 9 30 1016 10 16.09344 0 0
8:35 pm 20:35 Sunny 79 26 66 19 65 65 SSW 5 7 30 1016 10 16.09344 0 0
8:55 pm 20:55 Clear 79 26 66 19 65 65 SSW 7 11 30 1016 10 16.09344 0 0
9:15 pm 21:15 Clear 77 25 66 19 69 69 WSW 3 6 30 1016 10 16.09344 0 0
9:35 pm 21:35 Partly Cloudy 75 24 66 19 74 74 NW 3 6 30 1016 10 16.09344 0 0
9:55 pm 21:55 Mostly Cloudy 75 24 68 20 78 78 Calm 30 1016 10 16.09344 0 0
10:15 pm 22:15 Partly Cloudy 75 24 68 20 78 78 Calm 30 1016 10 16.09344 0 0
10:35 pm 22:35 Mostly Cloudy 75 24 68 20 78 78 Calm 30.03 1017 10 16.09344 0 0
10:55 pm 22:55 Partly Cloudy 73 23 68 20 83 83 Calm 30.03 1017 10 16.09344 0 0
11:15 pm 23:15 Clear 73 23 68 20 83 83 Calm 30 1016 10 16.09344 0 0
11:35 pm 23:35 Clear 72 22 68 20 88 88 Calm 30.03 1017 10 16.09344 0 0
11:55 pm 23:55 Clear 70 21 68 20 94 94 Calm 30 1016 10 16.09344 0 0

Powered by AerisWeather